Location: Asarope
(8.2500°N, 4.4833°E)
Time: 13:59:22
(UTC+00:00)

Okean O Rocket - Pass Details

Date: 07 June 2020
Orbit: 622 x 646 km, 98.2° (Epoch: 07 July)

Event Time Altitude Azimuth Distance (km) Brightness Sun altitude
Rises 04:45:16 0° 31° (NNE) 2,894 6.0 -9.4°
Reaches altitude 10° 04:47:44 10° 43° (NE) 1,986 5.4 -8.9°
Maximum altitude 04:51:23 27° 101° (E) 1,203 3.8 -8.1°
Drops below altitude 10° 04:55:01 10° 159° (SSE) 1,985 4.1 -7.3°
Sets 04:57:28 0° 171° (S) 2,891 4.8 -6.7°
